Year,Month,Day,Hour,Minute,Value (Times are PST for temperature in C)
2017,06,24,00,00,15.70
2017,06,24,00,01,15.70
2017,06,24,00,02,15.80
2017,06,24,00,03,16.00
2017,06,24,00,04,16.10
2017,06,24,00,05,16.10
2017,06,24,00,06,16.10
2017,06,24,00,07,16.10
2017,06,24,00,08,16.10
2017,06,24,00,09,16.10
2017,06,24,00,10,16.20
2017,06,24,00,11,16.20
2017,06,24,00,12,16.20
2017,06,24,00,13,16.30
2017,06,24,00,14,16.40
2017,06,24,00,15,16.40
2017,06,24,00,16,16.50
2017,06,24,00,17,16.60
2017,06,24,00,18,16.60
2017,06,24,00,19,16.60
2017,06,24,00,20,16.60
2017,06,24,00,21,16.70
2017,06,24,00,22,16.70
2017,06,24,00,23,16.70
2017,06,24,00,24,16.60
2017,06,24,00,25,16.60
2017,06,24,00,26,16.40
2017,06,24,00,27,16.10
2017,06,24,00,28,16.00
2017,06,24,00,29,15.80
2017,06,24,00,30,15.60
2017,06,24,00,31,15.40
2017,06,24,00,32,15.30
2017,06,24,00,33,15.20
2017,06,24,00,34,15.20
2017,06,24,00,35,15.20
2017,06,24,00,36,15.30
2017,06,24,00,37,15.30
2017,06,24,00,38,15.30
2017,06,24,00,39,15.40
2017,06,24,00,40,15.50
2017,06,24,00,41,15.50
2017,06,24,00,42,15.50
2017,06,24,00,43,15.40
2017,06,24,00,44,15.30
2017,06,24,00,45,15.30
2017,06,24,00,46,15.20
2017,06,24,00,47,15.20
2017,06,24,00,48,15.20
2017,06,24,00,49,15.10
2017,06,24,00,50,14.90
2017,06,24,00,51,14.80
2017,06,24,00,52,14.80
2017,06,24,00,53,14.80
2017,06,24,00,54,14.80
2017,06,24,00,55,14.70
2017,06,24,00,56,14.70
2017,06,24,00,57,14.50
2017,06,24,00,58,14.40
2017,06,24,00,59,14.40
2017,06,24,01,00,14.30
2017,06,24,01,01,14.40
2017,06,24,01,02,14.40
2017,06,24,01,03,14.50
2017,06,24,01,04,14.60
2017,06,24,01,05,14.80
2017,06,24,01,06,15.00
2017,06,24,01,07,15.20
2017,06,24,01,08,15.40
2017,06,24,01,09,15.60
2017,06,24,01,10,15.70
2017,06,24,01,11,15.70
2017,06,24,01,12,15.60
2017,06,24,01,13,15.50
2017,06,24,01,14,15.40
2017,06,24,01,15,15.30
2017,06,24,01,16,15.20
2017,06,24,01,17,15.10
2017,06,24,01,18,15.00
2017,06,24,01,19,15.00
2017,06,24,01,20,15.00
2017,06,24,01,21,15.10
2017,06,24,01,22,15.30
2017,06,24,01,23,15.40
2017,06,24,01,24,15.40
2017,06,24,01,25,15.50
2017,06,24,01,26,15.60
2017,06,24,01,27,15.70
2017,06,24,01,28,15.80
2017,06,24,01,29,15.80
2017,06,24,01,30,15.70
2017,06,24,01,31,15.70
2017,06,24,01,32,15.60
2017,06,24,01,33,15.60
2017,06,24,01,34,15.60
2017,06,24,01,35,15.70
2017,06,24,01,36,15.80
2017,06,24,01,37,15.90
2017,06,24,01,38,15.90
2017,06,24,01,39,15.90
2017,06,24,01,40,15.80
2017,06,24,01,41,15.80
2017,06,24,01,42,15.80
2017,06,24,01,43,15.80
2017,06,24,01,44,15.80
2017,06,24,01,45,15.80
2017,06,24,01,46,15.80
2017,06,24,01,47,15.80
2017,06,24,01,48,15.90
2017,06,24,01,49,15.90
2017,06,24,01,50,15.90
2017,06,24,01,51,15.90
2017,06,24,01,52,16.00
2017,06,24,01,53,16.10
2017,06,24,01,54,16.20
2017,06,24,01,55,16.20
2017,06,24,01,56,16.20
2017,06,24,01,57,16.20
2017,06,24,01,58,16.30
2017,06,24,01,59,16.30
2017,06,24,02,00,16.30
2017,06,24,02,01,16.30
2017,06,24,02,02,16.30
2017,06,24,02,03,16.30
2017,06,24,02,04,16.40
2017,06,24,02,05,16.50
2017,06,24,02,06,16.50
2017,06,24,02,07,16.60
2017,06,24,02,08,16.70
2017,06,24,02,09,16.80
2017,06,24,02,10,16.80
2017,06,24,02,11,16.80
2017,06,24,02,12,16.80
2017,06,24,02,13,16.90
2017,06,24,02,14,16.90
2017,06,24,02,15,16.90
2017,06,24,02,16,16.90
2017,06,24,02,17,17.00
2017,06,24,02,18,17.00
2017,06,24,02,19,17.10
2017,06,24,02,20,17.10
2017,06,24,02,21,17.10
2017,06,24,02,22,17.20
2017,06,24,02,23,17.10
2017,06,24,02,24,17.00
2017,06,24,02,25,17.00
2017,06,24,02,26,16.90
2017,06,24,02,27,16.90
2017,06,24,02,28,16.80
2017,06,24,02,29,16.70
2017,06,24,02,30,16.70
2017,06,24,02,31,16.60
2017,06,24,02,32,16.60
2017,06,24,02,33,16.50
2017,06,24,02,34,16.50
2017,06,24,02,35,16.40
2017,06,24,02,36,16.40
2017,06,24,02,37,16.40
2017,06,24,02,38,16.40
2017,06,24,02,39,16.40
2017,06,24,02,40,16.40
2017,06,24,02,41,16.40
2017,06,24,02,42,16.40
2017,06,24,02,43,16.30
2017,06,24,02,44,16.30
2017,06,24,02,45,16.30
2017,06,24,02,46,16.30
2017,06,24,02,47,16.20
2017,06,24,02,48,16.20
2017,06,24,02,49,16.30
2017,06,24,02,50,16.30
2017,06,24,02,51,16.30
2017,06,24,02,52,16.30
2017,06,24,02,53,16.30
2017,06,24,02,54,16.30
2017,06,24,02,55,16.30
2017,06,24,02,56,16.30
2017,06,24,02,57,16.40
2017,06,24,02,58,16.40
2017,06,24,02,59,16.50
2017,06,24,03,00,16.60
2017,06,24,03,01,16.80
2017,06,24,03,02,16.90
2017,06,24,03,03,16.90
2017,06,24,03,04,17.00
2017,06,24,03,05,17.10
2017,06,24,03,06,17.10
2017,06,24,03,07,17.20
2017,06,24,03,08,17.20
2017,06,24,03,09,17.20
2017,06,24,03,10,17.10
2017,06,24,03,11,17.10
2017,06,24,03,12,17.00
2017,06,24,03,13,17.10
2017,06,24,03,14,17.10
2017,06,24,03,15,17.00
2017,06,24,03,16,17.00
2017,06,24,03,17,16.90
2017,06,24,03,18,16.80
2017,06,24,03,19,16.70
2017,06,24,03,20,16.70
2017,06,24,03,21,16.60
2017,06,24,03,22,16.60
2017,06,24,03,23,16.70
2017,06,24,03,24,16.70
2017,06,24,03,25,16.70
2017,06,24,03,26,16.80
2017,06,24,03,27,16.90
2017,06,24,03,28,17.00
2017,06,24,03,29,17.10
2017,06,24,03,30,17.10
2017,06,24,03,31,17.20
2017,06,24,03,32,17.30
2017,06,24,03,33,17.30
2017,06,24,03,34,17.40
2017,06,24,03,35,17.40
2017,06,24,03,36,17.40
2017,06,24,03,37,17.50
2017,06,24,03,38,17.50
2017,06,24,03,39,17.50
2017,06,24,03,40,17.60
2017,06,24,03,41,17.60
2017,06,24,03,42,17.50
2017,06,24,03,43,17.50
2017,06,24,03,44,17.50
2017,06,24,03,45,17.50
2017,06,24,03,46,17.50
2017,06,24,03,47,17.40
2017,06,24,03,48,17.40
2017,06,24,03,49,17.40
2017,06,24,03,50,17.30
2017,06,24,03,51,17.30
2017,06,24,03,52,17.30
2017,06,24,03,53,17.40
2017,06,24,03,54,17.40
2017,06,24,03,55,17.50
2017,06,24,03,56,17.60
2017,06,24,03,57,17.70
2017,06,24,03,58,17.80
2017,06,24,03,59,17.80
2017,06,24,04,00,17.90
2017,06,24,04,01,18.00
2017,06,24,04,02,18.00
2017,06,24,04,03,18.00
2017,06,24,04,04,18.00
2017,06,24,04,05,18.00
2017,06,24,04,06,18.00
2017,06,24,04,07,18.10
2017,06,24,04,08,18.20
2017,06,24,04,09,18.30
2017,06,24,04,10,18.30
2017,06,24,04,11,18.30
2017,06,24,04,12,18.30
2017,06,24,04,13,18.30
2017,06,24,04,14,18.20
2017,06,24,04,15,18.10
2017,06,24,04,16,18.10
2017,06,24,04,17,18.10
2017,06,24,04,18,18.00
2017,06,24,04,19,18.00
2017,06,24,04,20,18.00
2017,06,24,04,21,18.00
2017,06,24,04,22,17.90
2017,06,24,04,23,17.90
2017,06,24,04,24,17.80
2017,06,24,04,25,17.80
2017,06,24,04,26,17.70
2017,06,24,04,27,17.70
2017,06,24,04,28,17.60
2017,06,24,04,29,17.60
2017,06,24,04,30,17.60
2017,06,24,04,31,17.50
2017,06,24,04,32,17.50
2017,06,24,04,33,17.40
2017,06,24,04,34,17.20
2017,06,24,04,35,17.00
2017,06,24,04,36,16.80
2017,06,24,04,37,16.60
2017,06,24,04,38,16.40
2017,06,24,04,39,16.30
2017,06,24,04,40,16.20
2017,06,24,04,41,16.20
2017,06,24,04,42,16.20
2017,06,24,04,43,16.20
2017,06,24,04,44,16.20
2017,06,24,04,45,16.20
2017,06,24,04,46,16.20
2017,06,24,04,47,16.10
2017,06,24,04,48,16.10
2017,06,24,04,49,16.10
2017,06,24,04,50,16.10
2017,06,24,04,51,16.10
2017,06,24,04,52,16.00
2017,06,24,04,53,16.00
2017,06,24,04,54,15.90
2017,06,24,04,55,15.80
2017,06,24,04,56,15.70
2017,06,24,04,57,15.60
2017,06,24,04,58,15.50
2017,06,24,04,59,15.40
2017,06,24,05,00,15.40
2017,06,24,05,01,15.40
2017,06,24,05,02,15.40
2017,06,24,05,03,15.40
2017,06,24,05,04,15.40
2017,06,24,05,05,15.40
2017,06,24,05,06,15.40
2017,06,24,05,07,15.40
2017,06,24,05,08,15.40
2017,06,24,05,09,15.40
2017,06,24,05,10,15.50
2017,06,24,05,11,15.50
2017,06,24,05,12,15.60
2017,06,24,05,13,15.70
2017,06,24,05,14,15.80
2017,06,24,05,15,15.80
2017,06,24,05,16,15.90
2017,06,24,05,17,16.00
2017,06,24,05,18,16.10
2017,06,24,05,19,16.30
2017,06,24,05,20,16.50
2017,06,24,05,21,16.60
2017,06,24,05,22,16.70
2017,06,24,05,23,16.90
2017,06,24,05,24,17.00
2017,06,24,05,25,17.10
2017,06,24,05,26,17.30
2017,06,24,05,27,17.50
2017,06,24,05,28,17.60
2017,06,24,05,29,17.70
2017,06,24,05,30,17.80
2017,06,24,05,31,17.90
2017,06,24,05,32,18.00
2017,06,24,05,33,18.00
2017,06,24,05,34,18.00
2017,06,24,05,35,18.00
2017,06,24,05,36,18.00
2017,06,24,05,37,17.90
2017,06,24,05,38,17.90
2017,06,24,05,39,17.80
2017,06,24,05,40,17.70
2017,06,24,05,41,17.70
2017,06,24,05,42,17.50
2017,06,24,05,43,17.20
2017,06,24,05,44,17.10
2017,06,24,05,45,17.00
2017,06,24,05,46,16.90
2017,06,24,05,47,16.80
2017,06,24,05,48,16.70
2017,06,24,05,49,16.60
2017,06,24,05,50,16.60
2017,06,24,05,51,16.60
2017,06,24,05,52,16.60
2017,06,24,05,53,16.70
2017,06,24,05,54,16.80
2017,06,24,05,55,16.80
2017,06,24,05,56,16.80
2017,06,24,05,57,16.80
2017,06,24,05,58,16.80
2017,06,24,05,59,16.60
2017,06,24,06,00,16.50
2017,06,24,06,01,16.40
2017,06,24,06,02,16.30
2017,06,24,06,03,16.20
2017,06,24,06,04,16.20
2017,06,24,06,05,16.20
2017,06,24,06,06,16.30
2017,06,24,06,07,16.40
2017,06,24,06,08,16.40
2017,06,24,06,09,16.50
2017,06,24,06,10,16.50
2017,06,24,06,11,16.60
2017,06,24,06,12,16.60
2017,06,24,06,13,16.50
2017,06,24,06,14,16.40
2017,06,24,06,15,16.40
2017,06,24,06,16,16.30
2017,06,24,06,17,16.20
2017,06,24,06,18,16.10
2017,06,24,06,19,16.00
2017,06,24,06,20,15.90
2017,06,24,06,21,15.80
2017,06,24,06,22,15.70
2017,06,24,06,23,15.60
2017,06,24,06,24,15.50
2017,06,24,06,25,15.40
2017,06,24,06,26,15.30
2017,06,24,06,27,15.30
2017,06,24,06,28,15.20
2017,06,24,06,29,15.20
2017,06,24,06,30,15.10
2017,06,24,06,31,15.00
2017,06,24,06,32,14.90
2017,06,24,06,33,14.90
2017,06,24,06,34,14.80
2017,06,24,06,35,14.80
2017,06,24,06,36,14.70
2017,06,24,06,37,14.70
2017,06,24,06,38,14.60
2017,06,24,06,39,14.60
2017,06,24,06,40,14.60
2017,06,24,06,41,14.60
2017,06,24,06,42,14.50
2017,06,24,06,43,14.60
2017,06,24,06,44,14.60
2017,06,24,06,45,14.60
2017,06,24,06,46,14.70
2017,06,24,06,47,14.70
2017,06,24,06,48,14.80
2017,06,24,06,49,14.80
2017,06,24,06,50,14.90
2017,06,24,06,51,14.90
2017,06,24,06,52,14.90
2017,06,24,06,53,14.90
2017,06,24,06,54,14.90
2017,06,24,06,55,14.90
2017,06,24,06,56,14.90
2017,06,24,06,57,15.00
2017,06,24,06,58,15.00
2017,06,24,06,59,15.10
2017,06,24,07,00,15.10
2017,06,24,07,01,15.20
2017,06,24,07,02,15.20
2017,06,24,07,03,15.30
2017,06,24,07,04,15.30
2017,06,24,07,05,15.40
2017,06,24,07,06,15.40
2017,06,24,07,07,15.40
2017,06,24,07,08,15.50
2017,06,24,07,09,15.50
2017,06,24,07,10,15.50
2017,06,24,07,11,15.40
2017,06,24,07,12,15.40
2017,06,24,07,13,15.30
2017,06,24,07,14,15.30
2017,06,24,07,15,15.20
2017,06,24,07,16,15.20
2017,06,24,07,17,15.20
2017,06,24,07,18,15.10
2017,06,24,07,19,15.10
2017,06,24,07,20,15.10
2017,06,24,07,21,15.00
2017,06,24,07,22,14.90
2017,06,24,07,23,14.70
2017,06,24,07,24,14.60
2017,06,24,07,25,14.50
2017,06,24,07,26,14.40
2017,06,24,07,27,14.40
2017,06,24,07,28,14.30
2017,06,24,07,29,14.30
2017,06,24,07,30,14.40
2017,06,24,07,31,14.40
2017,06,24,07,32,14.40
2017,06,24,07,33,14.40
2017,06,24,07,34,14.40
2017,06,24,07,35,14.40
2017,06,24,07,36,14.40
2017,06,24,07,37,14.50
2017,06,24,07,38,14.50
2017,06,24,07,39,14.50
2017,06,24,07,40,14.50
2017,06,24,07,41,14.50
2017,06,24,07,42,14.60
2017,06,24,07,43,14.60
2017,06,24,07,44,14.60
2017,06,24,07,45,14.60
2017,06,24,07,46,14.60
2017,06,24,07,47,14.60
2017,06,24,07,48,14.60
2017,06,24,07,49,14.50
2017,06,24,07,50,14.50
2017,06,24,07,51,14.50
2017,06,24,07,52,14.50
2017,06,24,07,53,14.50
2017,06,24,07,54,14.50
2017,06,24,07,55,14.50
2017,06,24,07,56,14.50
2017,06,24,07,57,14.50
2017,06,24,07,58,14.50
2017,06,24,07,59,14.50
2017,06,24,08,00,14.50
2017,06,24,08,01,14.50
2017,06,24,08,02,14.50
2017,06,24,08,03,14.50
2017,06,24,08,04,14.50
2017,06,24,08,05,14.50
2017,06,24,08,06,14.60
2017,06,24,08,07,14.60
2017,06,24,08,08,14.60
2017,06,24,08,09,14.60
2017,06,24,08,10,14.60
2017,06,24,08,11,14.60
2017,06,24,08,12,14.60
2017,06,24,08,13,14.60
2017,06,24,08,14,14.70
2017,06,24,08,15,14.70
2017,06,24,08,16,14.80
2017,06,24,08,17,14.80
2017,06,24,08,18,14.80
2017,06,24,08,19,14.80
2017,06,24,08,20,14.80
2017,06,24,08,21,14.80
2017,06,24,08,22,14.80
2017,06,24,08,23,14.80
2017,06,24,08,24,14.80
2017,06,24,08,25,14.80
2017,06,24,08,26,14.80
2017,06,24,08,27,14.80
2017,06,24,08,28,14.80
2017,06,24,08,29,14.90
2017,06,24,08,30,14.90
2017,06,24,08,31,14.90
2017,06,24,08,32,14.90
2017,06,24,08,33,14.90
2017,06,24,08,34,14.80
2017,06,24,08,35,14.80
2017,06,24,08,36,14.80
2017,06,24,08,37,14.80
2017,06,24,08,38,14.80
2017,06,24,08,39,14.80
2017,06,24,08,40,14.80
2017,06,24,08,41,14.90
2017,06,24,08,42,14.90
2017,06,24,08,43,14.90
2017,06,24,08,44,14.90
2017,06,24,08,45,14.90
2017,06,24,08,46,14.90
2017,06,24,08,47,14.90
2017,06,24,08,48,14.90
2017,06,24,08,49,14.90
2017,06,24,08,50,14.90
2017,06,24,08,51,15.00
2017,06,24,08,52,15.10
2017,06,24,08,53,15.30
2017,06,24,08,54,15.50
2017,06,24,08,55,15.80
2017,06,24,08,56,16.10
2017,06,24,08,57,16.30
2017,06,24,08,58,16.30
2017,06,24,08,59,16.50
2017,06,24,09,00,16.70
2017,06,24,09,01,16.80
2017,06,24,09,02,16.90
2017,06,24,09,03,17.00
2017,06,24,09,04,17.00
2017,06,24,09,05,17.10
2017,06,24,09,06,17.20
2017,06,24,09,07,17.30
2017,06,24,09,08,17.40
2017,06,24,09,09,17.40
2017,06,24,09,10,17.50
2017,06,24,09,11,17.50
2017,06,24,09,12,17.50
2017,06,24,09,13,17.50
2017,06,24,09,14,17.60
2017,06,24,09,15,17.60
2017,06,24,09,16,17.60
2017,06,24,09,17,17.60
2017,06,24,09,18,17.60
2017,06,24,09,19,17.50
2017,06,24,09,20,17.60
2017,06,24,09,21,17.60
2017,06,24,09,22,17.60
2017,06,24,09,23,17.70
2017,06,24,09,24,17.80
2017,06,24,09,25,17.90
2017,06,24,09,26,17.90
2017,06,24,09,27,18.00
2017,06,24,09,28,18.10
2017,06,24,09,29,18.30
2017,06,24,09,30,18.40
2017,06,24,09,31,18.60
2017,06,24,09,32,18.70
2017,06,24,09,33,18.90
2017,06,24,09,34,19.00
2017,06,24,09,35,19.10
2017,06,24,09,36,19.10
2017,06,24,09,37,19.20
2017,06,24,09,38,19.20
2017,06,24,09,39,19.20
2017,06,24,09,40,19.20
2017,06,24,09,41,19.20
2017,06,24,09,42,19.30
2017,06,24,09,43,19.30
2017,06,24,09,44,19.30
2017,06,24,09,45,19.30
2017,06,24,09,46,19.30
2017,06,24,09,47,19.30
2017,06,24,09,48,19.30
2017,06,24,09,49,19.30
2017,06,24,09,50,19.40
2017,06,24,09,51,19.40
2017,06,24,09,52,19.40
2017,06,24,09,53,19.50
2017,06,24,09,54,19.50
2017,06,24,09,55,19.60
2017,06,24,09,56,19.60
2017,06,24,09,57,19.60
2017,06,24,09,58,19.60
2017,06,24,09,59,19.60
2017,06,24,10,00,19.60
2017,06,24,10,01,19.60
2017,06,24,10,02,19.60
2017,06,24,10,03,19.60
2017,06,24,10,04,19.60
2017,06,24,10,05,19.60
2017,06,24,10,06,19.60
2017,06,24,10,07,19.60
2017,06,24,10,08,19.60
2017,06,24,10,09,19.60
2017,06,24,10,10,19.60
2017,06,24,10,11,19.50
2017,06,24,10,12,19.40
2017,06,24,10,13,19.40
2017,06,24,10,14,19.40
2017,06,24,10,15,19.30
2017,06,24,10,16,19.30
2017,06,24,10,17,19.30
2017,06,24,10,18,19.20
2017,06,24,10,19,19.20
2017,06,24,10,20,19.20
2017,06,24,10,21,19.10
2017,06,24,10,22,19.10
2017,06,24,10,23,19.20
2017,06,24,10,24,19.20
2017,06,24,10,25,19.20
2017,06,24,10,26,19.20
2017,06,24,10,27,19.20
2017,06,24,10,28,19.20
2017,06,24,10,29,19.20
2017,06,24,10,30,19.20
2017,06,24,10,31,19.20
2017,06,24,10,32,19.20
2017,06,24,10,33,19.20
2017,06,24,10,34,19.30
2017,06,24,10,35,19.30
2017,06,24,10,36,19.30
2017,06,24,10,37,19.30
2017,06,24,10,38,19.30
2017,06,24,10,39,19.30
2017,06,24,10,40,19.30
2017,06,24,10,41,19.30
2017,06,24,10,42,19.40
2017,06,24,10,43,19.50
2017,06,24,10,44,19.60
2017,06,24,10,45,19.60
2017,06,24,10,46,19.70
2017,06,24,10,47,19.70
2017,06,24,10,48,19.70
2017,06,24,10,49,19.80
2017,06,24,10,50,19.80
2017,06,24,10,51,19.80
2017,06,24,10,52,19.90
2017,06,24,10,53,19.90
2017,06,24,10,54,19.90
2017,06,24,10,55,20.00
2017,06,24,10,56,20.10
2017,06,24,10,57,20.10
2017,06,24,10,58,20.20
2017,06,24,10,59,20.30
2017,06,24,11,00,20.30
2017,06,24,11,01,20.30
2017,06,24,11,02,20.40
2017,06,24,11,03,20.40
2017,06,24,11,04,20.50
2017,06,24,11,05,20.60
2017,06,24,11,06,20.60
2017,06,24,11,07,20.60
2017,06,24,11,08,20.60
2017,06,24,11,09,20.60
2017,06,24,11,10,20.60
2017,06,24,11,11,20.70
2017,06,24,11,12,20.70
2017,06,24,11,13,20.70
2017,06,24,11,14,20.70
2017,06,24,11,15,20.70
2017,06,24,11,16,20.70
2017,06,24,11,17,20.80
2017,06,24,11,18,20.80
2017,06,24,11,19,20.80
2017,06,24,11,20,20.80
2017,06,24,11,21,20.80
2017,06,24,11,22,20.80
2017,06,24,11,23,20.90
2017,06,24,11,24,20.90
2017,06,24,11,25,20.90
2017,06,24,11,26,20.90
2017,06,24,11,27,20.90
2017,06,24,11,28,20.90
2017,06,24,11,29,20.90
2017,06,24,11,30,20.90
2017,06,24,11,31,20.90
2017,06,24,11,32,20.80
2017,06,24,11,33,20.80
2017,06,24,11,34,20.80
2017,06,24,11,35,20.80
2017,06,24,11,36,20.80
2017,06,24,11,37,20.80
2017,06,24,11,38,20.90
2017,06,24,11,39,20.90
2017,06,24,11,40,20.90
2017,06,24,11,41,20.90
2017,06,24,11,42,20.90
2017,06,24,11,43,20.90
2017,06,24,11,44,20.90
2017,06,24,11,45,21.00
2017,06,24,11,46,21.10
2017,06,24,11,47,21.10
2017,06,24,11,48,21.10
2017,06,24,11,49,21.10
2017,06,24,11,50,21.10
2017,06,24,11,51,21.10
2017,06,24,11,52,21.20
2017,06,24,11,53,21.30
2017,06,24,11,54,21.30
2017,06,24,11,55,21.30
2017,06,24,11,56,21.40
2017,06,24,11,57,21.40
2017,06,24,11,58,21.40
2017,06,24,11,59,21.40
2017,06,24,12,00,21.40
2017,06,24,12,01,21.40
2017,06,24,12,02,21.50
2017,06,24,12,03,21.50
2017,06,24,12,04,21.60
2017,06,24,12,05,21.60
2017,06,24,12,06,21.70
2017,06,24,12,07,21.80
2017,06,24,12,08,21.80
2017,06,24,12,09,21.90
2017,06,24,12,10,21.90
2017,06,24,12,11,21.90
2017,06,24,12,12,21.90
2017,06,24,12,13,21.90
2017,06,24,12,14,21.90
2017,06,24,12,15,21.90
2017,06,24,12,16,21.90
2017,06,24,12,17,21.80
2017,06,24,12,18,21.80
2017,06,24,12,19,21.70
2017,06,24,12,20,21.70
2017,06,24,12,21,21.70
2017,06,24,12,22,21.70
2017,06,24,12,23,21.60
2017,06,24,12,24,21.60
2017,06,24,12,25,21.60
2017,06,24,12,26,21.60
2017,06,24,12,27,21.60
2017,06,24,12,28,21.60
2017,06,24,12,29,21.60
2017,06,24,12,30,21.50
2017,06,24,12,31,21.40
2017,06,24,12,32,21.40
2017,06,24,12,33,21.50
2017,06,24,12,34,21.40
2017,06,24,12,35,21.40
2017,06,24,12,36,21.40
2017,06,24,12,37,21.30
2017,06,24,12,38,21.30
2017,06,24,12,39,21.20
2017,06,24,12,40,21.20
2017,06,24,12,41,21.10
2017,06,24,12,42,20.90
2017,06,24,12,43,20.90
2017,06,24,12,44,21.00
2017,06,24,12,45,21.20
2017,06,24,12,46,21.30
2017,06,24,12,47,21.40
2017,06,24,12,48,21.40
2017,06,24,12,49,21.40
2017,06,24,12,50,21.40
2017,06,24,12,51,21.30
2017,06,24,12,52,21.30
2017,06,24,12,53,21.30
2017,06,24,12,54,21.30
2017,06,24,12,55,21.40
2017,06,24,12,56,21.40
2017,06,24,12,57,21.50
2017,06,24,12,58,21.50
2017,06,24,12,59,21.50
2017,06,24,13,00,21.50
2017,06,24,13,01,21.50
2017,06,24,13,02,21.60
2017,06,24,13,03,21.50
2017,06,24,13,04,21.50
2017,06,24,13,05,21.50
2017,06,24,13,06,21.50
2017,06,24,13,07,21.40
2017,06,24,13,08,21.40
2017,06,24,13,09,21.40
2017,06,24,13,10,21.40
2017,06,24,13,11,21.40
2017,06,24,13,12,21.50
2017,06,24,13,13,21.50
2017,06,24,13,14,21.60
2017,06,24,13,15,21.60
2017,06,24,13,16,21.60
2017,06,24,13,17,21.60
2017,06,24,13,18,21.60
2017,06,24,13,19,21.40
2017,06,24,13,20,21.30
2017,06,24,13,21,21.20
2017,06,24,13,22,21.20
2017,06,24,13,23,21.20
2017,06,24,13,24,21.30
2017,06,24,13,25,21.50
2017,06,24,13,26,21.50
2017,06,24,13,27,21.60
2017,06,24,13,28,21.60
2017,06,24,13,29,21.60
2017,06,24,13,30,21.50
2017,06,24,13,31,21.50
2017,06,24,13,32,21.60
2017,06,24,13,33,21.70
2017,06,24,13,34,21.80
2017,06,24,13,35,21.90
2017,06,24,13,36,22.00
2017,06,24,13,37,22.10
2017,06,24,13,38,22.00
2017,06,24,13,39,22.10
2017,06,24,13,40,22.20
2017,06,24,13,41,22.30
2017,06,24,13,42,22.30
2017,06,24,13,43,22.30
2017,06,24,13,44,22.40
2017,06,24,13,45,22.50
2017,06,24,13,46,22.50
2017,06,24,13,47,22.60
2017,06,24,13,48,22.60
2017,06,24,13,49,22.60
2017,06,24,13,50,22.60
2017,06,24,13,51,22.70
2017,06,24,13,52,22.70
2017,06,24,13,53,22.70
2017,06,24,13,54,22.70
2017,06,24,13,55,22.70
2017,06,24,13,56,22.60
2017,06,24,13,57,22.50
2017,06,24,13,58,22.50
2017,06,24,13,59,22.30
2017,06,24,14,00,22.00
2017,06,24,14,01,21.80
2017,06,24,14,02,21.80
2017,06,24,14,03,21.80
2017,06,24,14,04,21.60
2017,06,24,14,05,21.50
2017,06,24,14,06,21.70
2017,06,24,14,07,21.90
2017,06,24,14,08,22.00
2017,06,24,14,09,22.10
2017,06,24,14,10,22.10
2017,06,24,14,11,22.20
2017,06,24,14,12,22.30
2017,06,24,14,13,22.50
2017,06,24,14,14,22.60
2017,06,24,14,15,22.80
2017,06,24,14,16,22.80
2017,06,24,14,17,22.60
2017,06,24,14,18,22.30
2017,06,24,14,19,21.90
2017,06,24,14,20,21.60
2017,06,24,14,21,21.40
2017,06,24,14,22,21.10
2017,06,24,14,23,20.90
2017,06,24,14,24,20.80
2017,06,24,14,25,20.70
2017,06,24,14,26,20.70
2017,06,24,14,27,20.70
2017,06,24,14,28,20.80
2017,06,24,14,29,20.90
2017,06,24,14,30,21.00
2017,06,24,14,31,21.10
2017,06,24,14,32,21.20
2017,06,24,14,33,21.30
2017,06,24,14,34,21.40
2017,06,24,14,35,21.50
2017,06,24,14,36,21.60
2017,06,24,14,37,21.70
2017,06,24,14,38,21.70
2017,06,24,14,39,21.60
2017,06,24,14,40,21.60
2017,06,24,14,41,21.50
2017,06,24,14,42,21.40
2017,06,24,14,43,21.40
2017,06,24,14,44,21.40
2017,06,24,14,45,21.40
2017,06,24,14,46,21.40
2017,06,24,14,47,21.40
2017,06,24,14,48,21.40
2017,06,24,14,49,21.60
2017,06,24,14,50,21.80
2017,06,24,14,51,22.10
2017,06,24,14,52,22.30
2017,06,24,14,53,22.40
2017,06,24,14,54,22.50
2017,06,24,14,55,22.60
2017,06,24,14,56,22.70
2017,06,24,14,57,22.80
2017,06,24,14,58,23.00
2017,06,24,14,59,23.10
2017,06,24,15,00,23.20
2017,06,24,15,01,23.30
2017,06,24,15,02,23.50
2017,06,24,15,03,23.60
2017,06,24,15,04,23.70
2017,06,24,15,05,23.80
2017,06,24,15,06,23.80
2017,06,24,15,07,23.80
2017,06,24,15,08,23.80
2017,06,24,15,09,23.90
2017,06,24,15,10,24.00
2017,06,24,15,11,24.00
2017,06,24,15,12,24.00
2017,06,24,15,13,24.10
2017,06,24,15,14,24.10
2017,06,24,15,15,24.00
2017,06,24,15,16,24.00
2017,06,24,15,17,24.10
2017,06,24,15,18,24.00
2017,06,24,15,19,24.00
2017,06,24,15,20,24.10
2017,06,24,15,21,24.00
2017,06,24,15,22,24.00
2017,06,24,15,23,24.10
2017,06,24,15,24,24.10
2017,06,24,15,25,24.10
2017,06,24,15,26,24.10
2017,06,24,15,27,24.10
2017,06,24,15,28,24.00
2017,06,24,15,29,24.00
2017,06,24,15,30,24.00
2017,06,24,15,31,24.00
2017,06,24,15,32,24.10
2017,06,24,15,33,24.10
2017,06,24,15,34,24.10
2017,06,24,15,35,24.10
2017,06,24,15,36,24.10
2017,06,24,15,37,24.10
2017,06,24,15,38,24.10
2017,06,24,15,39,24.00
2017,06,24,15,40,23.90
2017,06,24,15,41,23.80
2017,06,24,15,42,23.80
2017,06,24,15,43,23.80
2017,06,24,15,44,23.90
2017,06,24,15,45,23.90
2017,06,24,15,46,23.90
2017,06,24,15,47,24.00
2017,06,24,15,48,24.00
2017,06,24,15,49,24.10
2017,06,24,15,50,24.10
2017,06,24,15,51,24.20
2017,06,24,15,52,24.20
2017,06,24,15,53,24.30
2017,06,24,15,54,24.30
2017,06,24,15,55,24.40
2017,06,24,15,56,24.40
2017,06,24,15,57,24.50
2017,06,24,15,58,24.50
2017,06,24,15,59,24.50
2017,06,24,16,00,24.60
2017,06,24,16,01,24.60
2017,06,24,16,02,24.60
2017,06,24,16,03,24.60
2017,06,24,16,04,24.60
2017,06,24,16,05,24.60
2017,06,24,16,06,24.50
2017,06,24,16,07,24.30
2017,06,24,16,08,24.00
2017,06,24,16,09,23.70
2017,06,24,16,10,23.60
2017,06,24,16,11,23.70
2017,06,24,16,12,23.70
2017,06,24,16,13,23.70
2017,06,24,16,14,23.70
2017,06,24,16,15,23.50
2017,06,24,16,16,23.10
2017,06,24,16,17,22.90
2017,06,24,16,18,22.70
2017,06,24,16,19,22.80
2017,06,24,16,20,22.80
2017,06,24,16,21,22.80
2017,06,24,16,22,22.60
2017,06,24,16,23,22.60
2017,06,24,16,24,22.70
2017,06,24,16,25,23.00
2017,06,24,16,26,23.10
2017,06,24,16,27,23.20
2017,06,24,16,28,23.20
2017,06,24,16,29,23.20
2017,06,24,16,30,23.10
2017,06,24,16,31,23.10
2017,06,24,16,32,23.20
2017,06,24,16,33,23.30
2017,06,24,16,34,23.20
2017,06,24,16,35,23.20
2017,06,24,16,36,23.40
2017,06,24,16,37,23.50
2017,06,24,16,38,23.50
2017,06,24,16,39,23.50
2017,06,24,16,40,23.40
2017,06,24,16,41,23.40
2017,06,24,16,42,23.40
2017,06,24,16,43,23.40
2017,06,24,16,44,23.30
2017,06,24,16,45,23.30
2017,06,24,16,46,23.20
2017,06,24,16,47,23.10
2017,06,24,16,48,23.20
2017,06,24,16,49,23.30
2017,06,24,16,50,23.40
2017,06,24,16,51,23.40
2017,06,24,16,52,23.40
2017,06,24,16,53,23.40
2017,06,24,16,54,23.40
2017,06,24,16,55,23.20
2017,06,24,16,56,23.00
2017,06,24,16,57,22.80
2017,06,24,16,58,22.70
2017,06,24,16,59,22.50
2017,06,24,17,00,22.20
2017,06,24,17,01,21.90
2017,06,24,17,02,21.70
2017,06,24,17,03,21.60
2017,06,24,17,04,21.50
2017,06,24,17,05,21.40
2017,06,24,17,06,21.40
2017,06,24,17,07,21.40
2017,06,24,17,08,21.40
2017,06,24,17,09,21.40
2017,06,24,17,10,21.50
2017,06,24,17,11,21.50
2017,06,24,17,12,21.60
2017,06,24,17,13,21.60
2017,06,24,17,14,21.60
2017,06,24,17,15,21.60
2017,06,24,17,16,21.60
2017,06,24,17,17,21.70
2017,06,24,17,18,21.90
2017,06,24,17,19,22.10